N5KR Weather Reports


Display with metric or nautical units.
time (UTC)temp
F
wind
direction
speed
MPH
gust
MPH
rain 1hr
in
rain 24hr
in
rain mn
in
humidity
%
barometer
mb
20260502130504 56 345 1.0 3.0 0.00 0.01 0.00 75 1021.7
20260502123504 53 333 1.0 3.0 0.00 0.01 0.00 84 1021.1
20260502123004 52 234 0.0 0.0 0.00 0.01 0.00 86 1021.0
20260502122504 52 182 0.0 0.0 0.00 0.01 0.00 87 1020.9
20260502122004 51 182 0.0 0.0 0.00 0.01 0.00 89 1020.8
20260502121504 51 182 0.0 0.0 0.00 0.01 0.00 89 1020.7
20260502121004 51 182 0.0 0.0 0.00 0.01 0.00 89 1020.7
20260502120505 51 182 0.0 0.0 0.00 0.01 0.00 89 1020.7
20260502115504 51 182 0.0 0.0 0.00 0.01 0.00 89 1020.5
20260502114504 51 182 0.0 0.0 0.00 0.01 0.00 89 1020.4
20260502114004 51 182 0.0 0.0 0.00 0.01 0.00 89 1020.3
20260502113504 51 182 0.0 0.0 0.00 0.01 0.00 89 1020.3
20260502113004 51 182 0.0 0.0 0.00 0.01 0.00 89 1020.3
20260502112504 51 182 0.0 0.0 0.00 0.01 0.00 89 1020.1
20260502112004 51 182 0.0 0.0 0.00 0.01 0.00 89 1020.2
20260502111504 51 182 0.0 0.0 0.00 0.01 0.00 89 1020.1
20260502111004 51 182 0.0 0.0 0.00 0.01 0.00 88 1020.1
20260502110504 51 182 0.0 0.0 0.00 0.01 0.00 88 1020.0
20260502110004 51 182 0.0 0.0 0.00 0.01 0.00 88 1019.9
20260502105504 51 182 0.0 0.0 0.00 0.01 0.00 88 1020.0
20260502105004 51 182 0.0 0.0 0.00 0.01 0.00 88 1020.0
20260502104504 52 182 0.0 0.0 0.00 0.01 0.00 88 1019.9
20260502104004 51 182 0.0 0.0 0.00 0.01 0.00 88 1019.8
20260502103504 51 182 0.0 0.0 0.00 0.01 0.00 88 1019.6
20260502103004 51 182 0.0 0.0 0.00 0.01 0.00 88 1019.6
20260502102504 51 182 0.0 0.0 0.00 0.01 0.00 87 1019.5
20260502102004 52 182 0.0 0.0 0.00 0.01 0.00 87 1019.4
20260502101504 52 182 0.0 0.0 0.00 0.01 0.00 87 1019.5
20260502101004 52 182 0.0 0.0 0.00 0.01 0.00 86 1019.5
20260502100504 52 182 0.0 0.0 0.00 0.01 0.00 86 1019.6
20260502091504 52 182 0.0 0.0 0.00 0.01 0.00 86 1019.4
20260502090504 52 182 0.0 0.0 0.00 0.01 0.00 86 1019.4
20260502071506 54 182 0.0 0.0 0.00 0.01 0.00 81 1019.5
20260502071006 54 182 0.0 0.0 0.00 0.01 0.00 81 1019.4
20260502070506 54 182 0.0 0.0 0.00 0.01 0.00 81 1019.5
20260502070007 54 182 0.0 0.0 0.00 0.01 0.00 81 1019.5
20260502064506 55 182 0.0 0.0 0.00 0.01 0.00 80 1019.7
20260502063007 55 182 0.0 0.0 0.00 0.01 0.00 81 1019.8
20260502062507 55 182 0.0 0.0 0.00 0.01 0.00 81 1019.6
20260502061007 54 182 0.0 0.0 0.00 0.01 0.00 82 1019.5
20260502055007 55 182 0.0 0.0 0.00 0.01 0.00 80 1019.6
20260502054506 55 182 0.0 0.0 0.00 0.01 0.00 81 1019.5
20260502054006 55 182 0.0 0.0 0.00 0.01 0.00 80 1019.6
20260502053507 55 182 0.0 0.0 0.00 0.01 0.00 81 1019.5
20260502053006 55 182 0.0 0.0 0.00 0.01 0.00 82 1019.5
20260502052506 55 181 0.0 0.0 0.00 0.01 0.00 82 1019.5
20260502052006 55 143 0.0 0.0 0.00 0.01 0.00 81 1019.5
20260502051507 55 142 0.0 0.0 0.00 0.01 0.00 81 1019.6
20260502050506 56 142 0.0 0.0 0.00 0.01 0.00 79 1019.7
20260502050006 56 142 0.0 0.0 0.00 0.01 0.00 79 1019.6
20260502045006 56 142 0.0 0.0 0.00 0.01 0.01 79 1019.5
20260502044006 56 142 0.0 0.0 0.00 0.01 0.01 79 1019.5
20260502043506 56 142 0.0 0.0 0.00 0.01 0.01 78 1019.5
20260502043006 57 142 0.0 0.0 0.00 0.01 0.01 77 1019.5
20260502042506 57 142 0.0 0.0 0.00 0.01 0.01 77 1019.5
20260502042006 57 142 0.0 0.0 0.00 0.01 0.01 76 1019.4
20260502041506 57 142 0.0 0.0 0.00 0.01 0.01 76 1019.4
20260502040506 57 142 0.0 0.0 0.00 0.01 0.01 76 1019.3
20260502040006 57 142 0.0 0.0 0.00 0.01 0.01 75 1019.3
20260502035506 58 142 0.0 0.0 0.00 0.01 0.01 74 1019.3
20260502034506 58 142 0.0 0.0 0.00 0.01 0.01 74 1019.4
20260502033506 58 142 0.0 0.0 0.00 0.01 0.01 74 1019.4
20260502033006 58 142 0.0 0.0 0.00 0.01 0.01 73 1019.3
20260502032506 59 142 0.0 0.0 0.00 0.01 0.01 73 1019.3
20260502032006 59 142 0.0 0.0 0.00 0.01 0.01 73 1019.2
20260502031006 59 142 0.0 0.0 0.00 0.01 0.01 72 1019.2
20260502030506 59 142 0.0 0.0 0.00 0.01 0.01 71 1019.1
20260502030006 59 142 0.0 0.0 0.00 0.01 0.01 71 1018.9
20260502025505 60 142 0.0 0.0 0.00 0.01 0.01 70 1018.8
20260502025006 60 142 0.0 0.0 0.00 0.01 0.01 70 1018.8
20260502024506 60 142 0.0 0.0 0.00 0.01 0.01 69 1019.0
20260502024006 60 142 0.0 0.0 0.00 0.01 0.01 69 1018.9
20260502023506 61 142 0.0 0.0 0.00 0.01 0.01 67 1018.9
20260502023006 61 142 0.0 0.0 0.00 0.01 0.01 68 1018.9
20260502022506 61 142 0.0 0.0 0.00 0.01 0.01 67 1018.7
20260502021006 61 142 0.0 0.0 0.00 0.01 0.01 65 1018.5
20260502020511 61 142 0.0 0.0 0.00 0.01 0.01 65 1018.4
20260502020005 61 142 0.0 0.0 0.00 0.01 0.01 65 1018.3
20260502015506 61 142 0.0 0.0 0.00 0.01 0.01 65 1018.2
20260502015006 61 142 0.0 0.0 0.00 0.01 0.01 65 1018.2
20260502014506 62 136 0.0 0.0 0.00 0.01 0.01 64 1018.0
20260502014006 62 136 0.0 0.0 0.00 0.01 0.01 64 1017.9
20260502013505 62 136 0.0 0.0 0.00 0.01 0.01 64 1017.7
20260502013006 62 136 0.0 0.0 0.00 0.01 0.01 64 1017.6
20260502012506 62 137 0.0 0.0 0.00 0.01 0.01 64 1017.5
20260502011506 62 137 0.0 0.0 0.00 0.01 0.01 63 1017.4
20260502011006 62 137 0.0 0.0 0.00 0.01 0.01 62 1017.3
20260502010005 63 137 1.0 5.0 0.00 0.01 0.01 62 1017.3
20260502005505 63 137 0.0 2.0 0.00 0.01 0.01 62 1017.1
20260502005006 63 137 0.0 6.0 0.00 0.01 0.01 61 1017.0
20260502004506 63 153 2.0 6.0 0.00 0.01 0.01 61 1016.9
20260502004006 63 136 1.0 2.0 0.00 0.01 0.01 61 1016.9
20260502003506 63 136 2.0 5.0 0.00 0.01 0.01 61 1016.8
20260502003006 63 132 0.0 0.0 0.00 0.01 0.01 61 1016.7
20260502002506 63 132 0.0 0.0 0.00 0.01 0.01 61 1016.7
20260502002006 63 132 0.0 5.0 0.00 0.01 0.01 60 1016.5
20260502001506 63 132 3.0 6.0 0.00 0.01 0.01 59 1016.5
20260502001006 63 167 3.0 6.0 0.00 0.01 0.01 59 1016.3
20260502000505 64 142 3.0 6.0 0.00 0.01 0.01 59 1016.3
20260502000005 64 158 0.0 0.0 0.00 0.01 0.01 59 1016.2
20260501235505 64 158 0.0 0.0 0.00 0.01 0.01 59 1016.2
20260501235006 64 158 0.0 0.0 0.00 0.01 0.01 59 1016.1
20260501234506 64 158 0.0 0.0 0.00 0.01 0.01 58 1016.1
20260501234006 64 158 0.0 0.0 0.00 0.01 0.01 58 1016.0
20260501233006 64 158 2.0 3.0 0.00 0.01 0.01 57 1016.0
20260501232505 64 158 2.0 6.0 0.00 0.01 0.01 58 1015.9
20260501232005 64 159 3.0 6.0 0.00 0.01 0.01 57 1015.7
20260501231506 64 134 2.0 5.0 0.01 0.01 0.01 57 1015.7
20260501231005 64 140 3.0 7.0 0.01 0.01 0.01 57 1015.7
20260501225506 64 131 1.0 5.0 0.01 0.01 0.01 57 1015.6
20260501225006 64 72 2.0 6.0 0.01 0.01 0.01 56 1015.6
20260501224506 65 90 3.0 7.0 0.01 0.01 0.01 56 1015.6
20260501224006 65 100 3.0 8.0 0.01 0.01 0.01 55 1015.6
20260501223006 65 68 3.0 9.0 0.01 0.01 0.01 55 1015.6
20260501222505 65 99 3.0 8.0 0.01 0.01 0.01 55 1015.7
20260501222005 65 132 3.0 9.0 0.01 0.01 0.01 55 1015.6
20260501221505 65 60 3.0 10.0 0.00 0.00 0.00 55 1015.6
20260501220505 65 79 5.0 10.0 0.00 0.00 0.00 55 1015.7
20260501220005 65 67 3.0 12.0 0.00 0.00 0.00 55 1015.7
20260501215006 65 115 5.0 8.0 0.00 0.00 0.00 56 1015.7
20260501214506 65 58 4.0 10.0 0.00 0.00 0.00 55 1015.6
20260501214005 65 115 4.0 13.0 0.00 0.00 0.00 55 1015.6
20260501213505 65 60 5.0 10.0 0.00 0.00 0.00 55 1015.7
20260501213006 65 76 4.0 8.0 0.00 0.00 0.00 55 1015.7
20260501212505 65 71 3.0 12.0 0.00 0.00 0.00 54 1015.7
20260501211505 65 88 6.0 13.0 0.00 0.00 0.00 53 1016.0
20260501210505 65 87 8.0 14.0 0.00 0.00 0.00 52 1016.5
20260501210006 65 97 10.0 14.0 0.00 0.00 0.00 52 1016.3
20260501205505 65 97 7.0 13.0 0.00 0.00 0.00 53 1016.3
20260501204505 65 90 9.0 18.0 0.00 0.00 0.00 53 1016.4
20260501204006 65 74 8.0 14.0 0.00 0.00 0.00 53 1016.5
20260501203506 64 101 6.0 16.0 0.00 0.00 0.00 53 1016.8
20260501203005 64 98 8.0 16.0 0.00 0.00 0.00 52 1016.9
20260501202505 64 82 6.0 10.0 0.00 0.00 0.00 52 1017.0
20260501202005 64 98 8.0 15.0 0.00 0.00 0.00 53 1016.8
20260501201506 64 89 7.0 18.0 0.00 0.00 0.00 52 1016.7
20260501201005 65 76 9.0 18.0 0.00 0.00 0.00 51 1016.9
20260501200505 65 74 9.0 17.0 0.00 0.00 0.00 51 1016.6
20260501200005 65 74 10.0 17.0 0.00 0.00 0.00 52 1016.4
20260501195005 64 80 10.0 17.0 0.00 0.00 0.00 52 1016.4
20260501194006 64 66 9.0 15.0 0.00 0.00 0.00 53 1016.3
20260501193505 64 66 6.0 16.0 0.00 0.00 0.00 55 1016.2
20260501193005 64 76 7.0 16.0 0.00 0.00 0.00 54 1016.3
20260501191505 64 69 10.0 16.0 0.00 0.00 0.00 51 1016.0
20260501190505 64 105 8.0 21.0 0.00 0.00 0.00 50 1016.3
20260501190005 65 73 11.0 22.0 0.00 0.00 0.00 50 1016.2
20260501185005 65 89 10.0 26.0 0.00 0.00 0.00 52 1016.0
20260501184505 65 67 6.0 16.0 0.00 0.00 0.00 52 1016.1
20260501184005 65 70 10.0 23.0 0.00 0.00 0.00 52 1016.2
20260501182505 66 54 11.0 21.0 0.00 0.00 0.00 53 1016.5
20260501182005 66 82 11.0 20.0 0.00 0.00 0.00 52 1016.5
20260501181505 66 36 9.0 18.0 0.00 0.00 0.00 53 1016.5
20260501181005 66 90 10.0 18.0 0.00 0.00 0.00 55 1016.7
20260501180505 67 85 11.0 24.0 0.00 0.00 0.00 52 1016.9
20260501180005 67 58 8.0 17.0 0.00 0.00 0.00 51 1017.0
20260501175505 67 59 6.0 15.0 0.00 0.00 0.00 54 1017.2
20260501175005 67 61 8.0 16.0 0.00 0.00 0.00 51 1017.2
20260501174504 67 75 10.0 21.0 0.00 0.00 0.00 52 1016.9
20260501174005 66 72 5.0 16.0 0.00 0.00 0.00 55 1017.2
20260501173505 66 57 8.0 18.0 0.00 0.00 0.00 55 1017.3
20260501172005 66 53 9.0 14.0 0.00 0.00 0.00 55 1017.5
20260501171505 65 89 6.0 17.0 0.00 0.00 0.00 59 1017.6
20260501171005 64 89 9.0 15.0 0.00 0.00 0.00 59 1017.5
20260501170505 64 99 10.0 15.0 0.00 0.00 0.00 62 1017.6
20260501170005 64 99 10.0 16.0 0.00 0.00 0.00 60 1017.5
20260501165504 64 92 8.0 13.0 0.00 0.00 0.00 62 1017.7
20260501164505 63 104 7.0 13.0 0.00 0.00 0.00 65 1017.8
20260501164005 63 46 6.0 15.0 0.00 0.00 0.00 63 1017.8
20260501163505 63 97 7.0 13.0 0.00 0.00 0.00 66 1017.8
20260501163005 62 88 6.0 13.0 0.00 0.00 0.00 67 1017.9
20260501162504 61 73 7.0 14.0 0.00 0.00 0.00 68 1018.0
20260501161504 60 72 5.0 12.0 0.00 0.00 0.00 69 1017.9
20260501161005 59 100 7.0 14.0 0.00 0.00 0.00 70 1017.8
20260501160505 59 103 7.0 13.0 0.00 0.00 0.00 70 1018.0
20260501160004 58 102 5.0 13.0 0.00 0.00 0.00 70 1018.2
20260501155505 58 103 6.0 12.0 0.00 0.00 0.00 71 1018.3
20260501154504 58 98 3.0 10.0 0.00 0.00 0.00 72 1018.3
20260501154005 57 96 6.0 12.0 0.00 0.00 0.00 71 1018.3
20260501153505 57 105 6.0 10.0 0.00 0.00 0.00 71 1018.1
20260501153004 57 106 2.0 10.0 0.00 0.00 0.00 73 1017.9
20260501152005 57 117 3.0 12.0 0.00 0.00 0.00 73 1017.5
20260501151505 57 73 2.0 14.0 0.00 0.00 0.00 73 1017.7
20260501150504 57 51 3.0 10.0 0.00 0.00 0.00 74 1017.6
20260501150005 57 37 5.0 10.0 0.00 0.00 0.00 74 1017.8
20260501145504 57 69 2.0 8.0 0.00 0.00 0.00 74 1017.9